| time (UTC) | temp F | wind direction | speed knots | gust knots | rain 1hr in | rain 24hr in | rain mn in | humidity % | barometer mb |
| 20260506044905 | 58 | 350 | 0.0 | 0.0 | 0.00 | 0.09 | 0.00 | 92 | 1004.8 |
| 20260506043905 | 58 | 350 | 0.0 | 0.0 | 0.00 | 0.09 | 0.00 | 92 | 1004.9 |
| 20260506043404 | 58 | 350 | 0.0 | 0.0 | 0.00 | 0.09 | 0.00 | 91 | 1004.9 |
| 20260506042904 | 59 | 350 | 0.0 | 0.0 | 0.00 | 0.09 | 0.00 | 91 | 1004.9 |
| 20260506042404 | 59 | 350 | 0.0 | 0.0 | 0.00 | 0.09 | 0.00 | 91 | 1004.8 |
| 20260506041904 | 59 | 350 | 0.0 | 0.0 | 0.00 | 0.09 | 0.00 | 92 | 1004.9 |
| 20260506041404 | 58 | 349 | 0.0 | 0.0 | 0.00 | 0.09 | 0.00 | 92 | 1005.0 |
| 20260506040905 | 58 | 349 | 0.0 | 0.0 | 0.00 | 0.09 | 0.00 | 92 | 1005.0 |
| 20260506040404 | 58 | 349 | 0.0 | 0.0 | 0.00 | 0.09 | 0.00 | 92 | 1004.9 |
| 20260506035904 | 59 | 349 | 0.0 | 0.0 | 0.00 | 0.09 | 0.09 | 94 | 1004.8 |
| 20260506035404 | 57 | 349 | 0.0 | 0.0 | 0.00 | 0.09 | 0.09 | 95 | 1004.9 |
| 20260506034904 | 57 | 349 | 0.0 | 0.0 | 0.00 | 0.09 | 0.09 | 95 | 1005.0 |
| 20260506034404 | 56 | 349 | 0.0 | 0.0 | 0.00 | 0.09 | 0.09 | 95 | 1004.7 |
| 20260506033903 | 56 | 349 | 0.0 | 0.0 | 0.00 | 0.09 | 0.09 | 94 | 1004.6 |
| 20260506033404 | 56 | 349 | 0.0 | 0.0 | 0.00 | 0.09 | 0.09 | 93 | 1004.7 |
| 20260506032904 | 57 | 349 | 0.0 | 0.0 | 0.00 | 0.09 | 0.09 | 93 | 1004.6 |
| 20260506032404 | 57 | 349 | 0.0 | 0.0 | 0.00 | 0.09 | 0.09 | 93 | 1004.5 |
| 20260506031904 | 58 | 349 | 0.0 | 0.0 | 0.00 | 0.09 | 0.09 | 93 | 1004.4 |
| 20260506031404 | 58 | 349 | 0.0 | 0.0 | 0.00 | 0.09 | 0.09 | 93 | 1004.5 |
| 20260506030904 | 58 | 349 | 0.0 | 0.0 | 0.00 | 0.09 | 0.09 | 93 | 1004.6 |
| 20260506025904 | 59 | 349 | 0.0 | 0.0 | 0.00 | 0.09 | 0.09 | 93 | 1004.8 |
| 20260506025404 | 59 | 349 | 0.0 | 0.0 | 0.00 | 0.09 | 0.09 | 92 | 1004.7 |
| 20260506024905 | 59 | 349 | 0.0 | 0.0 | 0.00 | 0.09 | 0.09 | 92 | 1004.8 |
| 20260506024404 | 59 | 349 | 0.0 | 0.0 | 0.00 | 0.09 | 0.09 | 92 | 1005.0 |
| 20260506023904 | 59 | 349 | 0.0 | 0.0 | 0.00 | 0.09 | 0.09 | 92 | 1004.9 |
| 20260506023404 | 59 | 349 | 0.0 | 0.0 | 0.00 | 0.09 | 0.09 | 92 | 1004.9 |
| 20260506022904 | 59 | 349 | 0.0 | 0.0 | 0.00 | 0.09 | 0.09 | 91 | 1004.9 |
| 20260506022404 | 60 | 349 | 0.0 | 0.0 | 0.00 | 0.09 | 0.09 | 91 | 1005.3 |
| 20260506021404 | 60 | 349 | 0.0 | 0.0 | 0.00 | 0.09 | 0.09 | 88 | 1005.0 |
| 20260506020904 | 61 | 349 | 0.0 | 0.0 | 0.00 | 0.09 | 0.09 | 87 | 1005.0 |
| 20260506020404 | 62 | 349 | 0.0 | 0.0 | 0.00 | 0.09 | 0.09 | 85 | 1005.0 |
| 20260506015404 | 63 | 345 | 1.7 | 7.0 | 0.00 | 0.09 | 0.09 | 82 | 1004.9 |
| 20260506014904 | 62 | 0 | 2.6 | 5.2 | 0.00 | 0.09 | 0.09 | 82 | 1005.0 |
| 20260506014404 | 62 | 0 | 2.6 | 8.7 | 0.00 | 0.09 | 0.09 | 83 | 1005.2 |
| 20260506013404 | 61 | 330 | 4.3 | 10.4 | 0.00 | 0.09 | 0.09 | 87 | 1004.8 |
| 20260506012904 | 61 | 338 | 3.5 | 7.8 | 0.00 | 0.09 | 0.09 | 87 | 1004.5 |
| 20260506012404 | 61 | 340 | 1.7 | 8.7 | 0.00 | 0.09 | 0.09 | 91 | 1004.4 |
| 20260506010904 | 59 | 15 | 0.0 | 0.0 | 0.00 | 0.09 | 0.09 | 95 | 1004.4 |
| 20260506010404 | 59 | 15 | 0.0 | 0.0 | 0.00 | 0.09 | 0.09 | 94 | 1004.2 |
| 20260506005904 | 59 | 15 | 0.0 | 0.0 | 0.00 | 0.09 | 0.09 | 94 | 1004.2 |
| 20260506005404 | 59 | 15 | 0.0 | 0.0 | 0.00 | 0.09 | 0.09 | 94 | 1004.2 |
| 20260506004404 | 60 | 15 | 0.0 | 0.0 | 0.00 | 0.09 | 0.09 | 94 | 1004.1 |
| 20260506003904 | 60 | 15 | 0.0 | 0.0 | 0.00 | 0.09 | 0.09 | 93 | 1004.1 |
| 20260506003404 | 60 | 15 | 0.0 | 0.0 | 0.00 | 0.09 | 0.09 | 93 | 1004.1 |
| 20260506002904 | 60 | 15 | 0.0 | 0.0 | 0.00 | 0.09 | 0.09 | 93 | 1003.9 |
| 20260506002404 | 60 | 15 | 0.0 | 0.0 | 0.01 | 0.09 | 0.09 | 93 | 1003.7 |
| 20260506001903 | 60 | 15 | 0.0 | 0.0 | 0.01 | 0.09 | 0.09 | 92 | 1003.7 |
| 20260506001404 | 60 | 15 | 0.0 | 0.0 | 0.01 | 0.09 | 0.09 | 92 | 1003.6 |
| 20260506000904 | 60 | 15 | 0.0 | 0.0 | 0.01 | 0.09 | 0.09 | 91 | 1003.6 |
| 20260506000404 | 60 | 15 | 0.0 | 0.0 | 0.01 | 0.09 | 0.09 | 91 | 1003.5 |
| 20260505235904 | 60 | 15 | 0.0 | 0.0 | 0.01 | 0.09 | 0.09 | 91 | 1003.4 |
| 20260505235404 | 60 | 15 | 0.0 | 0.0 | 0.02 | 0.09 | 0.09 | 91 | 1003.3 |
| 20260505234904 | 60 | 15 | 0.0 | 0.0 | 0.02 | 0.09 | 0.09 | 90 | 1003.2 |
| 20260505233904 | 61 | 15 | 0.0 | 0.0 | 0.03 | 0.09 | 0.09 | 87 | 1003.2 |
| 20260505233404 | 62 | 15 | 0.0 | 0.9 | 0.03 | 0.09 | 0.09 | 86 | 1003.2 |
| 20260505232904 | 61 | 15 | 2.6 | 7.0 | 0.03 | 0.09 | 0.09 | 86 | 1003.1 |
| 20260505232404 | 61 | 14 | 0.9 | 7.0 | 0.02 | 0.08 | 0.08 | 89 | 1003.2 |
| 20260505231904 | 61 | 59 | 0.0 | 0.0 | 0.02 | 0.08 | 0.08 | 89 | 1003.3 |
| 20260505231404 | 61 | 59 | 0.0 | 0.0 | 0.02 | 0.08 | 0.08 | 88 | 1003.3 |
| 20260505230904 | 62 | 59 | 0.0 | 0.0 | 0.03 | 0.08 | 0.08 | 86 | 1003.5 |
| 20260505225904 | 62 | 69 | 5.2 | 14.8 | 0.08 | 0.08 | 0.08 | 86 | 1003.6 |
| 20260505225404 | 62 | 44 | 0.0 | 0.0 | 0.07 | 0.07 | 0.07 | 86 | 1003.8 |
| 20260505224904 | 62 | 44 | 0.0 | 2.6 | 0.07 | 0.07 | 0.07 | 86 | 1003.7 |
| 20260505224404 | 63 | 51 | 1.7 | 7.0 | 0.07 | 0.07 | 0.07 | 85 | 1003.5 |
| 20260505223904 | 63 | 55 | 1.7 | 7.8 | 0.06 | 0.06 | 0.06 | 84 | 1003.4 |
| 20260505223403 | 63 | 69 | 0.9 | 2.6 | 0.06 | 0.06 | 0.06 | 83 | 1003.2 |
| 20260505222904 | 63 | 59 | 1.7 | 6.1 | 0.06 | 0.06 | 0.06 | 84 | 1003.2 |
| 20260505222404 | 63 | 42 | 0.0 | 6.1 | 0.06 | 0.06 | 0.06 | 83 | 1003.1 |
| 20260505221904 | 63 | 36 | 0.9 | 7.8 | 0.06 | 0.06 | 0.06 | 82 | 1003.0 |
| 20260505221404 | 64 | 43 | 3.5 | 11.3 | 0.06 | 0.06 | 0.06 | 80 | 1002.9 |
| 20260505220904 | 66 | 38 | 6.1 | 12.2 | 0.05 | 0.05 | 0.05 | 75 | 1002.9 |
| 20260505220405 | 70 | 59 | 5.2 | 26.1 | 0.02 | 0.02 | 0.02 | 65 | 1002.8 |
| 20260505215904 | 75 | 56 | 11.3 | 20.0 | 0.00 | 0.00 | 0.00 | 49 | 1002.1 |
| 20260505215404 | 75 | 306 | 4.3 | 10.4 | 0.00 | 0.00 | 0.00 | 47 | 1000.5 |
| 20260505214904 | 76 | 331 | 6.1 | 15.6 | 0.00 | 0.00 | 0.00 | 47 | 1000.0 |
| 20260505214404 | 76 | 281 | 7.0 | 13.0 | 0.00 | 0.00 | 0.00 | 47 | 999.7 |
| 20260505213904 | 76 | 282 | 7.8 | 15.6 | 0.00 | 0.00 | 0.00 | 46 | 999.7 |
| 20260505213404 | 76 | 267 | 10.4 | 20.9 | 0.00 | 0.00 | 0.00 | 46 | 999.5 |
| 20260505212905 | 76 | 266 | 6.1 | 17.4 | 0.00 | 0.00 | 0.00 | 46 | 999.5 |
| 20260505212404 | 77 | 289 | 9.6 | 19.1 | 0.00 | 0.00 | 0.00 | 45 | 999.4 |
| 20260505211904 | 77 | 311 | 6.1 | 17.4 | 0.00 | 0.00 | 0.00 | 45 | 999.3 |
| 20260505211404 | 77 | 272 | 8.7 | 18.2 | 0.00 | 0.00 | 0.00 | 44 | 999.3 |
| 20260505210404 | 78 | 277 | 11.3 | 18.2 | 0.00 | 0.00 | 0.00 | 45 | 999.2 |
| 20260505205905 | 78 | 276 | 8.7 | 14.8 | 0.00 | 0.00 | 0.00 | 45 | 999.4 |
| 20260505205404 | 78 | 278 | 5.2 | 15.6 | 0.00 | 0.00 | 0.00 | 46 | 999.3 |
| 20260505203905 | 78 | 281 | 8.7 | 20.9 | 0.00 | 0.00 | 0.00 | 44 | 999.4 |
| 20260505203404 | 78 | 296 | 5.2 | 13.0 | 0.00 | 0.00 | 0.00 | 45 | 999.3 |
| 20260505202904 | 78 | 298 | 8.7 | 22.6 | 0.00 | 0.00 | 0.00 | 43 | 999.3 |
| 20260505202404 | 79 | 292 | 13.9 | 22.6 | 0.00 | 0.00 | 0.00 | 42 | 999.1 |
| 20260505201904 | 80 | 296 | 9.6 | 26.1 | 0.00 | 0.00 | 0.00 | 37 | 999.2 |
| 20260505201404 | 80 | 338 | 11.3 | 20.0 | 0.00 | 0.00 | 0.00 | 36 | 999.3 |
| 20260505200405 | 81 | 325 | 7.8 | 20.0 | 0.00 | 0.00 | 0.00 | 37 | 999.4 |
| 20260505195904 | 81 | 351 | 14.8 | 24.3 | 0.00 | 0.00 | 0.00 | 35 | 999.5 |
| 20260505195405 | 81 | 343 | 13.0 | 25.2 | 0.00 | 0.00 | 0.00 | 35 | 999.6 |
| 20260505194904 | 82 | 319 | 7.8 | 18.2 | 0.00 | 0.00 | 0.00 | 35 | 999.6 |
| 20260505194404 | 82 | 331 | 8.7 | 18.2 | 0.00 | 0.00 | 0.00 | 35 | 999.6 |
| 20260505193904 | 81 | 308 | 11.3 | 25.2 | 0.00 | 0.00 | 0.00 | 35 | 999.6 |
| 20260505192904 | 81 | 321 | 13.0 | 21.7 | 0.00 | 0.00 | 0.00 | 35 | 999.7 |
| 20260505192404 | 82 | 355 | 9.6 | 19.1 | 0.00 | 0.00 | 0.00 | 37 | 999.9 |
| 20260505191905 | 82 | 311 | 2.6 | 11.3 | 0.00 | 0.00 | 0.00 | 38 | 999.8 |
| 20260505190904 | 81 | 17 | 7.8 | 15.6 | 0.00 | 0.00 | 0.00 | 39 | 999.9 |
| 20260505190405 | 80 | 347 | 13.9 | 22.6 | 0.00 | 0.00 | 0.00 | 39 | 1000.1 |
| 20260505185904 | 80 | 320 | 12.2 | 20.9 | 0.00 | 0.00 | 0.00 | 40 | 1000.3 |
| 20260505185404 | 80 | 341 | 7.8 | 20.0 | 0.00 | 0.00 | 0.00 | 39 | 1000.4 |
| 20260505184904 | 80 | 319 | 12.2 | 21.7 | 0.00 | 0.00 | 0.00 | 40 | 1000.4 |
| 20260505184404 | 80 | 337 | 8.7 | 19.1 | 0.00 | 0.00 | 0.00 | 42 | 1000.4 |
| 20260505183904 | 80 | 335 | 6.1 | 15.6 | 0.00 | 0.00 | 0.00 | 39 | 1000.4 |
| 20260505183404 | 80 | 319 | 8.7 | 17.4 | 0.00 | 0.00 | 0.00 | 40 | 1000.6 |
| 20260505182904 | 80 | 333 | 7.0 | 14.8 | 0.00 | 0.00 | 0.00 | 41 | 1000.7 |
| 20260505182405 | 79 | 324 | 10.4 | 19.1 | 0.00 | 0.00 | 0.00 | 41 | 1000.7 |
| 20260505181904 | 79 | 6 | 12.2 | 20.0 | 0.00 | 0.00 | 0.00 | 42 | 1000.8 |
| 20260505181404 | 78 | 338 | 10.4 | 18.2 | 0.00 | 0.00 | 0.00 | 42 | 1001.0 |
| 20260505180904 | 79 | 332 | 8.7 | 22.6 | 0.00 | 0.00 | 0.00 | 41 | 1001.1 |
| 20260505175404 | 78 | 311 | 8.7 | 19.1 | 0.00 | 0.00 | 0.00 | 44 | 1001.2 |
| 20260505174904 | 78 | 319 | 12.2 | 20.0 | 0.00 | 0.00 | 0.00 | 44 | 1001.2 |
| 20260505174404 | 77 | 312 | 11.3 | 22.6 | 0.00 | 0.00 | 0.00 | 44 | 1001.5 |
| 20260505172904 | 77 | 282 | 10.4 | 20.9 | 0.00 | 0.00 | 0.00 | 45 | 1001.6 |
| 20260505172405 | 77 | 323 | 7.8 | 17.4 | 0.00 | 0.00 | 0.00 | 46 | 1001.7 |
| 20260505171404 | 76 | 327 | 9.6 | 19.1 | 0.00 | 0.00 | 0.00 | 45 | 1002.0 |
| 20260505170904 | 76 | 336 | 11.3 | 20.9 | 0.00 | 0.00 | 0.00 | 47 | 1002.1 |
| 20260505170404 | 75 | 323 | 7.8 | 18.2 | 0.00 | 0.00 | 0.00 | 46 | 1002.1 |
| 20260505165904 | 75 | 324 | 7.8 | 17.4 | 0.00 | 0.00 | 0.00 | 48 | 1002.2 |
| 20260505165404 | 74 | 312 | 4.3 | 14.8 | 0.00 | 0.00 | 0.00 | 49 | 1002.4 |
| 20260505164904 | 74 | 309 | 11.3 | 18.2 | 0.00 | 0.01 | 0.00 | 48 | 1002.4 |
| 20260505164405 | 74 | 317 | 6.1 | 17.4 | 0.00 | 0.01 | 0.00 | 46 | 1002.3 |
| 20260505163903 | 74 | 348 | 6.1 | 14.8 | 0.00 | 0.01 | 0.00 | 47 | 1002.5 |
| 20260505163404 | 74 | 332 | 8.7 | 21.7 | 0.00 | 0.01 | 0.00 | 47 | 1002.5 |
| 20260505162904 | 75 | 338 | 8.7 | 17.4 | 0.00 | 0.01 | 0.00 | 47 | 1002.6 |
| 20260505162404 | 76 | 334 | 7.0 | 18.2 | 0.00 | 0.01 | 0.00 | 49 | 1002.6 |
| 20260505161904 | 76 | 313 | 6.1 | 18.2 | 0.00 | 0.02 | 0.00 | 49 | 1002.8 |
| 20260505161404 | 75 | 346 | 2.6 | 11.3 | 0.00 | 0.03 | 0.00 | 49 | 1002.8 |
| 20260505160404 | 75 | 326 | 6.1 | 19.1 | 0.00 | 0.04 | 0.00 | 49 | 1003.0 |
| 20260505152904 | 73 | 319 | 7.0 | 17.4 | 0.00 | 0.04 | 0.00 | 50 | 1003.6 |
| 20260505152404 | 72 | 298 | 4.3 | 12.2 | 0.00 | 0.04 | 0.00 | 50 | 1003.7 |
| 20260505151404 | 70 | 320 | 3.5 | 13.0 | 0.00 | 0.04 | 0.00 | 53 | 1003.9 |
| 20260505150903 | 69 | 318 | 5.2 | 14.8 | 0.00 | 0.04 | 0.00 | 51 | 1003.9 |
| 20260505150404 | 69 | 313 | 4.3 | 12.2 | 0.00 | 0.04 | 0.00 | 51 | 1004.0 |
| 20260505140404 | 66 | 333 | 7.0 | 12.2 | 0.00 | 0.04 | 0.00 | 54 | 1004.0 |
| 20260505124404 | 60 | 319 | 6.1 | 12.2 | 0.00 | 0.04 | 0.00 | 63 | 1004.7 |
| 20260505123904 | 60 | 313 | 7.0 | 11.3 | 0.00 | 0.04 | 0.00 | 65 | 1004.6 |
| 20260505123404 | 59 | 328 | 7.0 | 14.8 | 0.00 | 0.04 | 0.00 | 65 | 1004.7 |
| 20260505122405 | 56 | 309 | 6.1 | 10.4 | 0.00 | 0.04 | 0.00 | 77 | 1004.7 |
| 20260505121904 | 55 | 144 | 0.0 | 0.0 | 0.00 | 0.04 | 0.00 | 78 | 1004.8 |
| 20260505121404 | 54 | 144 | 0.0 | 0.0 | 0.00 | 0.04 | 0.00 | 81 | 1004.9 |
| 20260505120904 | 53 | 144 | 0.0 | 0.0 | 0.00 | 0.04 | 0.00 | 81 | 1005.1 |
| 20260505120405 | 53 | 144 | 0.0 | 4.3 | 0.00 | 0.04 | 0.00 | 82 | 1005.2 |
| 20260505115905 | 52 | 49 | 0.0 | 0.0 | 0.00 | 0.04 | 0.00 | 85 | 1005.3 |
| 20260505115404 | 51 | 49 | 0.0 | 0.0 | 0.00 | 0.04 | 0.00 | 88 | 1005.3 |
| 20260505114904 | 49 | 49 | 0.0 | 0.0 | 0.00 | 0.04 | 0.00 | 90 | 1005.4 |
| 20260505114404 | 48 | 49 | 0.0 | 0.0 | 0.00 | 0.04 | 0.00 | 92 | 1005.4 |
| 20260505113904 | 47 | 49 | 0.0 | 0.0 | 0.00 | 0.04 | 0.00 | 94 | 1005.4 |
| 20260505113404 | 47 | 49 | 0.0 | 0.0 | 0.00 | 0.04 | 0.00 | 95 | 1005.3 |
| 20260505112904 | 46 | 49 | 0.0 | 0.0 | 0.00 | 0.04 | 0.00 | 97 | 1005.3 |
| 20260505111904 | 44 | 49 | 0.0 | 0.0 | 0.00 | 0.04 | 0.00 | 97 | 1005.6 |
| 20260505111405 | 43 | 49 | 0.0 | 0.0 | 0.00 | 0.04 | 0.00 | 97 | 1005.5 |
| 20260505110904 | 42 | 49 | 0.0 | 0.0 | 0.00 | 0.04 | 0.00 | 97 | 1005.5 |
| 20260505110404 | 42 | 49 | 0.0 | 0.0 | 0.00 | 0.04 | 0.00 | 97 | 1005.4 |
| 20260505101905 | 40 | 49 | 0.0 | 0.0 | 0.00 | 0.04 | 0.00 | 96 | 1005.5 |
| 20260505101405 | 40 | 49 | 0.0 | 0.0 | 0.00 | 0.04 | 0.00 | 96 | 1005.5 |
| 20260505100904 | 40 | 49 | 0.0 | 0.0 | 0.00 | 0.04 | 0.00 | 96 | 1005.3 |
| 20260505100404 | 39 | 49 | 0.0 | 0.0 | 0.00 | 0.04 | 0.00 | 96 | 1005.3 |
| 20260505095904 | 39 | 49 | 0.0 | 0.0 | 0.00 | 0.04 | 0.00 | 96 | 1005.3 |
| 20260505095404 | 39 | 49 | 0.0 | 0.0 | 0.00 | 0.04 | 0.00 | 96 | 1005.2 |
| 20260505094905 | 39 | 49 | 0.0 | 0.0 | 0.00 | 0.04 | 0.00 | 96 | 1005.1 |
| 20260505094404 | 39 | 49 | 0.0 | 0.0 | 0.00 | 0.04 | 0.00 | 96 | 1005.2 |
| 20260505093904 | 39 | 49 | 0.0 | 0.0 | 0.00 | 0.04 | 0.00 | 96 | 1005.2 |
| 20260505093404 | 40 | 49 | 0.0 | 0.0 | 0.00 | 0.04 | 0.00 | 96 | 1005.3 |
| 20260505092905 | 40 | 49 | 0.0 | 0.0 | 0.00 | 0.04 | 0.00 | 96 | 1005.3 |
| 20260505091404 | 40 | 49 | 0.0 | 0.0 | 0.00 | 0.04 | 0.00 | 96 | 1005.2 |
| 20260505090904 | 40 | 49 | 0.0 | 0.0 | 0.00 | 0.04 | 0.00 | 96 | 1005.3 |
| 20260505085904 | 40 | 49 | 0.0 | 0.0 | 0.00 | 0.04 | 0.00 | 96 | 1005.3 |
| 20260505085404 | 40 | 49 | 0.0 | 0.0 | 0.00 | 0.04 | 0.00 | 96 | 1005.4 |
| 20260505083904 | 40 | 49 | 0.0 | 0.0 | 0.00 | 0.04 | 0.00 | 96 | 1005.5 |
| 20260505083404 | 40 | 49 | 0.0 | 0.0 | 0.00 | 0.04 | 0.00 | 96 | 1005.5 |
| 20260505082904 | 40 | 49 | 0.0 | 0.0 | 0.00 | 0.04 | 0.00 | 96 | 1005.6 |
| 20260505082404 | 41 | 49 | 0.0 | 0.0 | 0.00 | 0.04 | 0.00 | 96 | 1005.6 |
| 20260505081904 | 41 | 49 | 0.0 | 0.0 | 0.00 | 0.04 | 0.00 | 96 | 1005.6 |
| 20260505081404 | 41 | 49 | 0.0 | 0.0 | 0.00 | 0.04 | 0.00 | 96 | 1005.6 |
| 20260505080904 | 41 | 49 | 0.0 | 0.0 | 0.00 | 0.04 | 0.00 | 96 | 1005.6 |
| 20260505075904 | 41 | 49 | 0.0 | 0.0 | 0.00 | 0.04 | 0.00 | 96 | 1005.7 |
| 20260505075404 | 41 | 49 | 0.0 | 0.0 | 0.00 | 0.04 | 0.00 | 95 | 1005.7 |
| 20260505074904 | 41 | 49 | 0.0 | 0.0 | 0.00 | 0.04 | 0.00 | 95 | 1005.7 |
| 20260505074404 | 40 | 49 | 0.0 | 0.0 | 0.00 | 0.04 | 0.00 | 95 | 1005.7 |
| 20260505073904 | 41 | 49 | 0.0 | 0.0 | 0.00 | 0.04 | 0.00 | 95 | 1005.7 |
| 20260505073404 | 40 | 49 | 0.0 | 0.0 | 0.00 | 0.04 | 0.00 | 95 | 1005.7 |
| 20260505072905 | 40 | 49 | 0.0 | 0.0 | 0.00 | 0.04 | 0.00 | 95 | 1005.8 |
| 20260505072403 | 40 | 49 | 0.0 | 0.0 | 0.00 | 0.04 | 0.00 | 95 | 1005.8 |
| 20260505071404 | 40 | 49 | 0.0 | 0.0 | 0.00 | 0.04 | 0.00 | 94 | 1005.7 |
| 20260505070904 | 41 | 49 | 0.0 | 0.0 | 0.00 | 0.04 | 0.00 | 95 | 1005.8 |
| 20260505065904 | 41 | 49 | 0.0 | 0.0 | 0.00 | 0.04 | 0.00 | 94 | 1005.7 |
| 20260505065404 | 41 | 49 | 0.0 | 0.0 | 0.00 | 0.04 | 0.00 | 94 | 1005.7 |
| 20260505064904 | 41 | 49 | 0.0 | 0.0 | 0.00 | 0.04 | 0.00 | 94 | 1005.7 |
| 20260505064404 | 41 | 49 | 0.0 | 0.0 | 0.00 | 0.04 | 0.00 | 94 | 1005.7 |
| 20260505062904 | 42 | 49 | 0.0 | 0.0 | 0.00 | 0.04 | 0.00 | 94 | 1005.7 |
| 20260505062405 | 42 | 49 | 0.0 | 0.0 | 0.00 | 0.04 | 0.00 | 94 | 1005.6 |
| 20260505061903 | 42 | 49 | 0.0 | 0.0 | 0.00 | 0.04 | 0.00 | 93 | 1005.6 |
| 20260505061404 | 42 | 49 | 0.0 | 0.0 | 0.00 | 0.04 | 0.00 | 93 | 1005.6 |
| 20260505060904 | 42 | 49 | 0.0 | 0.0 | 0.00 | 0.04 | 0.00 | 93 | 1005.6 |
| 20260505060404 | 42 | 49 | 0.0 | 0.0 | 0.00 | 0.04 | 0.00 | 93 | 1005.6 |
| 20260505055904 | 42 | 49 | 0.0 | 0.0 | 0.00 | 0.04 | 0.00 | 92 | 1005.6 |
| 20260505055404 | 42 | 49 | 0.0 | 0.0 | 0.00 | 0.04 | 0.00 | 92 | 1005.6 |
| 20260505054904 | 43 | 49 | 0.0 | 0.0 | 0.00 | 0.04 | 0.00 | 91 | 1005.7 |
| 20260505054404 | 43 | 49 | 0.0 | 0.0 | 0.00 | 0.04 | 0.00 | 90 | 1005.6 |
| 20260505053904 | 44 | 49 | 0.0 | 0.0 | 0.00 | 0.04 | 0.00 | 89 | 1005.7 |
| 20260505053404 | 45 | 49 | 0.0 | 0.0 | 0.00 | 0.04 | 0.00 | 90 | 1005.6 |
| 20260505052904 | 45 | 49 | 0.0 | 0.0 | 0.00 | 0.04 | 0.00 | 93 | 1005.6 |
| 20260505052404 | 44 | 49 | 0.0 | 0.0 | 0.00 | 0.04 | 0.00 | 92 | 1005.6 |
| 20260505051904 | 44 | 49 | 0.0 | 0.0 | 0.00 | 0.04 | 0.00 | 92 | 1005.6 |
| 20260505051404 | 43 | 49 | 0.0 | 0.0 | 0.00 | 0.04 | 0.00 | 91 | 1005.7 |
| 20260505050904 | 44 | 49 | 0.0 | 0.0 | 0.00 | 0.04 | 0.00 | 88 | 1005.7 |
| 20260505050404 | 45 | 49 | 0.0 | 0.0 | 0.00 | 0.04 | 0.00 | 90 | 1005.7 |